Flag for Germany Weather past 2 weeks in Lippstadt, North Rhine-Westphalia, Germany

Now
61 °F

Passing clouds.


Feels Like: 61 °F
Forecast: 37 / 56 °F
Wind: 8 mph from West

Location: Paderborn / Lippstadt

Current Time: Apr 21, 2015 at 2:32:05 PM

Latest Report: Apr 21, 2015 at 1:50 PM


Visibility: N/A

Pressure: 30.42 "Hg

Humidity: 42%

Dew point: 37 °F

Location of LippstadtLocation

Historic Weather in Lippstadt — Graph

°F

Lippstadt temperature yesterday

Maximum temperature yesterday: 63 °F (at 5:20 PM)
Minimum temperature yesterday: 34 °F (at 5:20 AM)
Average temperature yesterday: 49 °F

Past Weeks' High & Low Weather Summary

 TemperatureHumidityPressure
High70 °F (Apr 15, 2:20 PM)93% (Apr 7, 6:50 AM)30.60 "Hg (Apr 7, 6:50 AM)
Low28 °F (Apr 7, 6:20 AM)28% (Apr 10, 6:20 PM)29.92 "Hg (Apr 15, 8:20 PM)
Average48 °F61%30.26 "Hg
* Reported Apr 6 1:20 PM — Apr 21 1:20 PM, Lippstadt, Weather by CustomWeather, © 2015

Note: Actual official high and low records may vary slightly from our data, if they occured in-between our weather recording intervals... More about our weather records

Advertising

Lippstadt weather history for previous 24 hours

 ConditionsComfort  
Time TempWeatherWind HumidityBarometerVisibility
1:20 PM
Tue, Apr 21
61 °FPassing clouds.9 mph42%30.42 "HgN/A
12:50 PM59 °FPassing clouds.7 mph42%30.42 "HgN/A
12:20 PM57 °FSunny.8 mph51%30.45 "Hg10 mi
11:50 AM57 °FPassing clouds.7 mph55%30.45 "HgN/A
11:20 AM55 °FSunny.6 mph55%30.45 "Hg10 mi
10:50 AM54 °FPassing clouds.6 mph54%30.42 "HgN/A
10:20 AM52 °FPassing clouds.5 mph62%30.42 "HgN/A
9:50 AM50 °FPassing clouds.5 mph62%30.42 "HgN/A
9:20 AM48 °FPassing clouds.3 mph71%30.42 "HgN/A
8:50 AM46 °FPassing clouds.3 mph71%30.42 "HgN/A
8:20 AM45 °FPassing clouds.5 mph71%30.42 "HgN/A
7:50 AM41 °FSunny.5 mph81%30.42 "Hg10 mi
7:20 AM37 °FSunny.1 mph81%30.42 "Hg10 mi
6:50 AM37 °FClear.1 mph87%30.39 "Hg10 mi
6:20 AM36 °FClear.2 mph93%30.39 "Hg10 mi
5:20 AM36 °FPassing clouds.3 mph87%30.39 "HgN/A
4:50 AM37 °FClear.2 mph87%30.39 "Hg10 mi
4:20 AM37 °FPassing clouds.3 mph81%30.39 "HgN/A
3:50 AM37 °FClear.2 mph87%30.39 "Hg10 mi
3:20 AM37 °FClear.5 mph81%30.39 "Hg10 mi
2:50 AM41 °FClear.3 mph76%30.39 "Hg10 mi
2:20 AM43 °FClear.2 mph71%30.39 "Hg10 mi
1:50 AM41 °FPassing clouds.3 mph76%30.39 "HgN/A
1:20 AM45 °FClear.2 mph66%30.39 "Hg10 mi
12:50 AM45 °FClear.2 mph61%30.39 "Hg10 mi
12:20 AM48 °FClear.2 mph54%30.36 "Hg10 mi
11:50 PM
Mon, Apr 20
50 °FClear.2 mph47%30.39 "Hg10 mi
11:20 PM52 °FClear.2 mph44%30.36 "Hg10 mi
10:50 PM52 °FClear.1 mph44%30.36 "Hg10 mi
10:20 PM54 °FClear.1 mph41%30.36 "Hg10 mi
9:50 PM54 °FClear.1 mph41%30.36 "Hg10 mi
9:20 PM55 °FSunny.2 mph41%30.36 "Hg10 mi
8:50 PM55 °FPassing clouds.3 mph41%30.33 "HgN/A
8:20 PM57 °FSunny.5 mph39%30.33 "Hg10 mi
7:50 PM59 °FSunny.3 mph42%30.33 "Hg10 mi
7:20 PM61 °FPassing clouds.6 mph36%30.33 "HgN/A
6:50 PM61 °FSunny.6 mph36%30.33 "Hg10 mi
6:20 PM63 °FPassing clouds.6 mph34%30.33 "HgN/A
5:50 PM61 °FPassing clouds.7 mph34%30.33 "HgN/A
5:20 PM63 °FSunny.6 mph34%30.33 "Hg10 mi
4:50 PM61 °FSunny.7 mph39%30.33 "Hg10 mi
4:20 PM61 °FSunny.8 mph34%30.33 "Hg10 mi
3:50 PM61 °FSunny.9 mph34%30.33 "Hg10 mi
3:20 PM61 °FPassing clouds.7 mph31%30.33 "HgN/A
2:50 PM59 °FSunny.6 mph34%30.33 "Hg10 mi
2:20 PM59 °FSunny.7 mph31%30.36 "Hg10 mi
Weather by CustomWeather, © 2015

See weather overviewHow to use our weather pages